Wind_Speed
69 69 69 69 69 70 70 71 72 73 73 74 75 75 76 77 78 78 78 79 79 79 80 80 81 81 82 83 84 85 86 87 88 89 88 84 81 80 80 78 76 75 74 72 70 67 65 64 63 60 54 49 47 48 50 51 52 51 50 50 51 50 47 42 39 37 37 39 40 40 37 31 27 24 23 23 24 25 26 27 26 24 22 22 21
71 71 71 71 71 72 72 73 74 75 75 76 77 77 77 78 79 80 80 81 81 81 81 82 82 83 83 84 85 86 88 88 89 88 85 82 82 84 83 80 77 76 74 72 69 65 64 65 63 60 54 48 47 48 51 52 53 53 53 54 53 51 48 42 38 35 35 37 39 39 35 30 25 23 23 23 23 25 26 25 23 22 22 21 18
72 72 72 73 74 74 75 75 76 76 77 78 78 79 79 80 81 81 82 82 83 83 83 83 84 84 85 86 87 88 89 88 88 87 85 86 88 87 85 82 79 76 74 71 69 67 67 67 63 59 54 49 48 50 53 54 55 55 55 54 53 50 46 41 36 33 34 36 37 37 33 28 25 24 23 22 23 24 24 22 22 22 21 19 17
74 74 74 75 76 76 76 77 77 78 78 79 80 80 81 82 82 83 84 84 85 84 84 85 85 86 86 87 88 89 90 90 90 90 89 90 89 88 86 82 79 76 74 72 71 70 69 67 63 60 56 54 54 55 56 56 56 54 52 51 50 48 43 37 33 31 33 35 35 35 31 27 25 24 23 22 23 23 22 21 22 22 20 18 17
75 76 76 76 77 77 78 78 79 79 80 81 81 82 83 84 84 85 85 86 86 86 86 86 86 87 88 89 90 91 92 92 92 91 89 89 89 89 86 82 79 76 75 73 71 70 69 66 64 61 59 58 58 58 57 56 53 50 48 49 48 45 40 34 30 29 32 34 33 32 30 27 25 24 23 22 22 21 21 22 22 21 19 17 16
77 77 77 78 79 79 79 80 80 81 82 82 83 84 84 85 86 86 87 87 88 87 87 87 88 89 89 91 92 93 93 92 90 88 89 90 90 87 85 82 79 76 74 72 70 68 67 66 64 62 60 59 59 59 57 54 51 48 48 48 45 41 36 31 28 29 31 31 31 30 28 27 25 24 23 22 21 21 22 22 21 19 18 17 16
78 78 79 79 80 81 81 82 82 82 83 84 84 85 86 87 87 88 88 88 89 89 89 89 90 90 91 93 94 93 91 90 89 89 91 90 88 86 84 81 78 75 73 71 69 67 66 64 63 62 60 60 59 58 56 53 50 47 45 43 40 36 33 28 26 28 30 29 29 28 28 27 26 24 23 22 21 21 22 22 20 19 17 17 16
79 80 80 82 82 82 83 83 84 84 84 85 86 87 87 88 88 88 89 90 90 90 92 92 92 93 94 94 92 90 89 89 90 91 90 89 87 84 81 79 76 73 71 68 67 65 63 62 61 60 60 59 58 57 55 51 48 44 40 37 34 33 30 26 26 28 28 27 27 28 28 28 26 24 23 22 21 21 22 22 20 18 17 16 15
81 81 83 83 84 84 84 84 85 85 86 86 87 88 88 89 89 90 90 91 92 93 93 94 95 95 94 91 88 87 88 90 90 90 89 87 84 81 78 76 72 68 65 64 63 63 62 60 59 59 58 58 57 55 53 49 45 40 35 33 31 30 28 25 26 27 27 26 26 28 28 28 27 25 23 22 21 22 22 22 20 19 17 16 15
83 84 84 84 85 85 85 86 86 87 87 87 87 88 89 90 91 92 93 93 94 95 96 96 95 93 91 88 87 87 88 89 89 88 86 83 79 76 73 69 65 61 60 60 60 59 58 57 57 58 57 56 54 52 49 45 41 35 32 31 29 29 26 25 26 26 26 26 26 28 29 28 27 25 23 23 22 22 23 22 21 19 18 16 15
85 85 85 85 86 86 86 87 87 88 88 88 89 90 92 92 93 94 95 95 95 96 95 94 92 90 88 86 85 85 85 87 86 84 81 77 74 70 65 62 60 59 59 56 54 53 53 52 53 54 54 52 49 47 43 40 36 32 31 29 28 27 26 26 26 26 26 26 27 28 29 29 27 25 24 23 23 23 23 23 21 19 18 16 15
85 85 86 86 86 87 87 88 88 89 90 90 91 92 94 94 95 96 95 95 95 94 91 89 87 85 83 82 82 82 84 84 81 77 74 71 68 62 59 59 58 58 54 50 51 52 50 48 50 51 50 47 44 40 37 34 32 31 30 28 28 27 26 27 27 26 26 27 28 28 29 28 27 25 24 24 24 23 24 23 22 20 18 17 15
87 87 88 88 88 88 88 89 90 91 92 93 94 95 96 96 97 95 94 92 91 89 86 84 82 80 79 80 82 83 81 76 73 72 71 68 62 57 57 59 57 53 49 49 52 51 49 49 50 49 47 43 39 36 33 32 32 31 30 28 28 27 27 28 28 27 27 28 29 29 29 28 27 26 24 24 24 24 24 23 22 20 19 17 16
88 89 89 90 89 89 89 90 91 92 94 95 95 96 96 95 93 90 87 85 83 82 80 78 77 77 79 83 83 77 71 68 68 69 69 63 56 56 60 61 59 52 47 49 51 50 51 53 50 47 44 40 36 34 33 33 33 32 31 30 29 29 28 28 29 28 28 29 29 29 29 28 27 26 24 24 25 24 24 24 22 21 20 18 16
90 90 90 91 90 91 91 92 93 94 95 95 95 94 92 88 84 80 77 75 74 74 73 74 75 79 82 81 74 66 64 66 66 67 66 60 56 61 65 64 62 55 50 51 52 53 55 54 49 45 40 36 33 32 33 33 32 31 31 31 30 30 30 29 29 29 28 29 30 30 29 28 28 26 24 24 25 25 24 24 22 21 20 19 17
90 90 90 90 90 90 89 89 90 92 92 91 89 86 81 77 73 71 71 71 72 72 71 74 79 82 80 72 65 65 67 67 66 65 62 60 63 68 69 64 62 58 56 58 56 54 54 53 48 41 36 31 28 28 30 30 28 28 29 29 30 31 30 29 28 29 30 31 31 30 29 28 28 26 24 25 26 25 24 24 22 21 20 19 18
85 85 86 87 86 85 83 84 86 86 83 80 78 77 75 72 68 69 72 72 72 72 74 78 80 80 75 67 65 69 72 71 67 61 58 62 67 69 66 60 57 57 57 57 52 50 52 50 45 39 34 31 28 27 28 28 26 25 27 27 30 31 29 27 28 29 31 31 31 30 29 28 28 26 25 25 26 26 24 24 23 21 20 20 19
85 85 86 84 79 77 77 77 75 72 70 71 73 76 74 72 69 70 70 66 67 71 74 77 75 74 70 65 66 71 73 69 62 56 57 62 62 59 56 53 53 54 53 52 51 52 52 49 45 41 36 34 33 31 30 28 26 26 27 26 26 27 26 26 28 30 32 31 30 29 29 29 28 27 25 25 27 27 25 24 23 21 21 21 20
92 92 91 86 77 72 70 69 68 68 73 78 77 72 66 67 67 64 60 60 67 70 69 68 67 67 64 63 69 72 68 60 57 57 59 58 53 51 51 51 53 53 51 52 55 53 50 48 46 43 40 38 37 36 33 29 27 27 29 27 24 24 25 27 29 31 32 31 30 29 29 29 28 27 26 26 27 27 26 24 23 22 21 21 20
94 95 94 91 83 77 76 76 78 81 80 74 68 65 63 63 60 56 58 66 71 69 64 61 61 62 63 67 68 63 58 55 56 56 56 55 52 53 54 51 50 50 50 52 53 50 49 48 45 44 42 40 39 37 35 32 29 28 29 29 28 27 27 28 30 31 31 30 30 29 29 29 29 28 27 27 28 28 27 25 24 23 22 22 22
94 95 93 91 87 83 83 81 80 79 74 65 64 65 63 57 53 58 68 73 74 68 61 56 56 62 66 65 57 51 53 52 51 51 52 53 50 50 48 45 47 50 52 52 50 49 49 46 44 42 41 39 38 37 35 33 31 29 27 28 29 28 29 29 29 30 30 29 30 29 29 29 29 29 28 28 29 29 28 26 26 24 22 23 23
94 93 90 88 86 83 82 80 76 74 71 67 68 66 62 56 58 69 74 72 70 63 56 53 58 64 60 52 47 47 47 45 45 48 49 46 43 43 43 45 49 51 50 49 46 46 45 42 41 40 39 38 36 35 33 31 31 30 27 27 27 27 29 28 27 28 28 30 30 29 29 30 30 30 28 29 30 30 29 28 27 26 24 24 25
89 89 89 87 85 80 78 80 79 74 68 64 64 64 66 64 64 70 69 64 62 56 53 56 59 55 45 41 40 39 40 43 46 48 46 43 43 42 43 46 48 48 48 47 44 43 43 41 40 38 37 36 34 33 31 29 30 29 27 26 26 26 28 27 26 27 28 30 30 28 29 30 30 29 28 29 30 30 31 30 29 28 26 24 25
78 81 81 78 75 70 70 70 68 67 65 65 67 68 69 68 64 63 60 56 56 55 53 53 47 36 34 34 33 36 42 47 46 46 44 42 39 38 42 46 46 47 45 42 42 43 43 42 40 37 35 35 34 31 28 28 29 29 28 27 26 27 28 27 27 28 30 30 29 29 29 29 30 29 29 29 30 31 32 32 31 30 29 26 26
69 69 67 65 64 65 67 62 59 63 65 63 64 63 63 62 59 56 55 54 56 57 52 47 40 30 29 32 33 37 41 42 40 40 42 37 34 37 44 48 48 48 43 39 40 40 40 38 36 35 33 32 32 29 27 27 28 30 29 28 27 27 28 28 28 29 31 31 29 29 30 30 30 30 29 30 30 32 33 33 33 31 30 29 27
64 63 61 61 62 65 64 56 53 57 57 55 56 59 60 60 58 55 55 56 59 61 56 52 48 41 33 28 28 31 35 39 36 37 40 37 36 41 44 45 46 48 46 42 38 34 33 33 30 31 30 29 30 29 28 27 26 28 30 28 27 28 29 29 29 29 31 30 29 29 30 31 31 30 31 31 31 32 33 34 34 33 32 30 28
63 61 58 58 59 60 54 42 38 43 47 52 56 58 58 57 56 55 56 58 59 58 56 54 53 49 37 26 24 27 35 39 34 32 36 38 37 36 38 42 45 48 46 36 29 28 27 26 25 27 27 28 31 31 28 25 25 26 28 29 29 28 28 29 28 28 30 30 30 30 31 32 32 32 32 32 32 32 33 34 35 34 33 31 29
66 64 59 57 52 47 42 37 39 44 48 49 49 49 47 48 49 49 51 51 50 50 51 52 50 48 41 36 34 33 36 37 32 29 33 39 36 30 36 44 45 43 35 23 19 21 23 23 23 24 24 27 30 28 23 21 21 23 24 27 29 29 29 29 27 27 29 31 32 32 32 33 34 34 34 33 32 33 34 34 35 35 34 31 29
69 68 66 64 56 49 48 48 46 44 44 42 43 44 42 44 47 46 45 43 45 49 51 50 47 44 43 43 43 42 40 38 34 33 36 43 42 40 43 42 39 34 27 19 14 17 21 23 24 24 24 24 24 22 19 18 19 21 24 26 28 29 29 28 27 28 30 32 33 33 33 34 34 34 34 33 33 33 34 34 35 36 35 32 31
70 70 70 67 64 60 56 51 43 38 39 39 40 42 42 45 47 47 46 46 48 51 50 49 45 42 41 41 43 45 44 42 41 42 45 51 54 52 44 34 30 26 23 20 17 18 22 24 24 23 24 23 21 19 18 17 20 23 25 27 27 27 27 28 28 29 30 32 34 33 33 33 33 34 35 35 35 35 35 35 35 35 34 32 32
68 69 68 66 64 61 56 48 42 38 36 36 36 37 42 46 48 48 46 46 47 46 43 39 35 32 33 35 38 42 44 45 48 53 57 60 58 53 44 34 28 24 21 22 22 22 23 25 27 26 25 25 23 21 19 17 21 25 25 26 27 27 28 29 29 29 30 31 33 34 34 34 35 37 38 39 38 38 37 36 35 34 34 34 35
66 66 64 63 60 58 54 48 45 42 37 37 37 36 41 45 46 46 44 43 44 41 36 31 28 27 31 35 38 41 45 51 58 63 64 62 56 51 46 40 33 28 23 22 22 24 25 27 29 28 27 27 27 26 24 20 20 23 25 28 30 30 32 32 31 30 30 31 34 36 37 39 40 39 39 40 40 40 40 39 37 36 37 38 39
63 63 61 60 57 55 53 46 42 43 41 38 38 38 42 45 44 44 45 44 42 38 35 34 33 33 37 41 43 48 55 62 66 66 63 59 53 48 44 42 38 30 25 24 23 23 25 27 27 25 24 25 26 26 26 25 24 25 27 30 32 33 34 33 32 31 31 32 35 38 39 38 38 37 37 38 38 38 39 40 39 40 40 41 42
61 61 59 57 56 54 51 44 39 43 45 41 41 43 44 45 44 45 49 47 43 41 39 38 38 41 47 52 55 60 67 70 67 63 59 56 51 44 39 39 40 32 26 25 24 24 25 25 23 23 24 23 22 24 24 24 26 28 29 31 34 36 34 32 31 32 34 32 30 34 36 34 34 36 37 38 37 36 36 38 39 41 43 43 44
60 59 57 55 55 53 49 43 39 44 49 48 48 47 46 48 48 48 50 46 42 41 43 44 48 56 63 67 69 70 71 69 64 60 58 56 52 46 39 37 40 36 31 28 27 27 27 25 23 22 22 20 22 27 26 24 25 27 28 29 32 35 33 32 32 34 35 31 30 33 33 32 34 36 37 37 36 36 36 38 39 41 43 44 46
60 59 57 54 53 53 48 44 41 41 42 44 47 47 44 44 41 39 40 39 39 43 51 58 63 68 72 72 72 69 65 62 60 58 57 55 52 49 43 38 38 40 39 37 35 32 27 27 25 18 14 14 22 30 32 31 29 28 29 30 32 34 34 36 37 37 34 31 32 34 34 34 34 33 34 35 35 37 38 40 40 41 42 44 45
59 58 54 51 52 52 48 44 43 40 34 35 43 41 32 28 26 29 35 40 46 53 60 65 68 69 69 67 64 61 58 56 55 54 53 51 48 46 43 37 36 40 40 38 38 35 29 27 27 18 9 10 23 32 34 35 34 31 32 32 32 34 37 41 43 40 36 32 30 30 30 30 30 30 31 32 34 37 40 41 41 40 41 43 44
59 56 52 50 52 52 49 43 42 43 40 38 38 28 22 29 33 37 44 49 54 58 59 61 62 62 60 57 55 53 52 51 50 49 47 46 44 42 41 36 36 38 37 36 37 37 34 30 29 23 15 14 25 32 30 30 32 32 31 30 30 32 34 39 41 39 37 36 33 30 28 25 26 27 28 28 28 31 35 38 40 41 41 41 42
57 54 51 51 52 50 46 42 41 43 44 40 30 23 31 41 44 47 52 56 60 60 59 58 57 56 53 51 49 48 46 44 43 42 41 41 41 42 42 39 38 39 39 37 36 36 35 34 31 27 24 22 26 30 29 28 29 29 29 29 29 30 31 34 37 36 35 35 34 33 31 28 26 25 25 26 26 27 28 30 34 37 38 37 37
54 51 50 51 50 46 42 40 39 40 45 41 28 29 41 46 50 54 58 62 63 61 59 57 54 52 50 48 46 43 41 39 38 36 36 37 39 42 45 43 40 42 43 40 37 33 31 34 35 31 30 27 27 32 35 34 32 28 26 28 29 29 29 33 36 34 33 32 30 31 31 30 28 25 24 25 27 28 26 27 30 31 33 34 35
50 47 49 50 47 43 39 37 37 39 45 44 36 37 46 49 54 58 61 62 61 58 55 53 50 47 46 45 43 39 36 34 33 32 32 33 37 42 46 47 44 43 45 43 41 38 31 31 36 38 37 34 34 38 37 33 32 29 27 30 30 29 29 32 35 34 33 30 28 28 29 28 27 23 22 23 26 27 25 27 30 31 32 34 35
45 46 46 45 43 40 38 36 36 37 41 42 41 44 48 51 55 58 59 60 58 56 53 50 47 44 43 42 39 35 32 30 30 30 29 30 34 39 45 49 50 48 46 43 43 43 38 33 35 40 43 42 40 38 33 30 31 30 30 31 30 28 28 30 31 32 32 29 28 29 28 26 24 24 24 26 28 28 27 28 31 31 31 32 33
43 44 44 42 40 38 36 35 33 34 36 35 37 42 46 49 53 55 56 56 55 53 51 48 46 43 42 40 37 32 29 27 27 27 28 28 30 34 39 45 50 51 49 47 46 46 43 38 36 38 40 39 37 36 32 31 31 30 30 30 30 29 29 29 29 30 30 29 29 31 33 32 32 32 33 35 34 33 32 32 32 31 31 32 34
42 43 43 41 39 37 34 34 33 35 35 30 31 41 46 50 51 52 53 54 53 52 50 48 46 44 43 40 37 32 28 26 25 25 26 27 28 30 33 38 43 48 49 49 48 47 44 40 36 35 34 33 35 38 37 35 35 34 32 31 30 30 30 30 30 30 30 29 31 33 36 38 40 40 41 41 41 40 40 40 40 39 38 38 39
40 40 40 37 35 35 35 35 34 36 35 28 31 41 47 51 53 54 55 55 54 52 50 48 47 45 43 39 36 33 29 26 24 23 25 27 27 28 30 32 36 40 45 47 47 47 46 43 40 37 35 34 36 39 40 39 37 36 33 32 32 33 32 30 28 29 28 29 32 33 35 37 39 40 40 39 40 41 41 43 45 45 44 43 43
38 37 37 34 33 34 35 34 31 31 31 27 32 42 48 53 56 56 56 55 55 53 50 47 46 44 41 37 34 32 31 28 25 23 24 27 29 30 31 32 33 35 39 42 44 46 48 48 47 45 41 39 38 39 40 39 35 33 33 31 31 33 32 30 30 31 30 32 36 36 36 38 38 37 36 37 37 37 38 40 43 45 47 46 45
35 32 32 32 31 30 30 28 24 24 23 25 35 45 51 53 55 56 56 56 54 52 49 46 44 41 38 35 32 32 31 30 27 25 25 26 29 31 33 34 35 36 39 40 42 45 47 49 50 49 46 44 43 42 41 40 36 34 33 30 29 31 33 34 35 36 36 37 39 40 40 40 40 38 37 37 38 38 38 39 40 43 46 48 49
29 25 25 26 24 23 24 22 20 20 20 28 41 49 51 52 53 53 54 54 53 49 46 43 40 37 35 33 32 31 31 31 30 28 27 27 28 30 32 34 36 38 40 42 43 45 47 48 49 48 47 45 44 42 42 41 38 35 33 31 30 31 32 34 35 37 39 40 39 40 41 41 41 41 41 41 41 40 40 39 39 40 43 46 48
20 15 13 14 13 16 22 22 19 17 20 32 43 47 48 49 46 45 47 48 48 46 42 39 37 35 33 32 31 30 31 31 30 30 29 28 29 30 31 33 35 37 40 42 44 44 45 46 45 45 44 42 41 40 40 39 36 34 31 30 31 32 32 32 33 35 38 40 40 40 41 41 43 44 44 43 42 41 38 37 37 38 40 42 44
12 14 15 16 18 21 22 24 21 17 21 34 44 47 47 45 41 40 42 44 44 43 41 38 36 34 32 31 30 29 29 29 29 30 30 30 30 30 31 32 33 34 36 38 39 41 42 42 42 42 41 40 39 38 37 36 34 33 31 29 29 32 33 32 32 33 36 40 41 41 42 42 43 45 44 42 40 38 37 36 36 36 37 38 40
27 33 36 34 35 35 32 31 30 25 26 33 40 46 48 41 37 37 39 41 42 41 39 37 35 34 32 30 28 28 27 27 27 27 28 29 29 30 31 31 31 32 33 34 35 36 37 39 39 39 38 37 37 36 35 34 32 31 31 30 30 31 32 32 32 33 37 41 42 42 41 40 41 42 41 39 37 36 36 36 36 36 36 36 36
Wind_Direction
287 288 289 290 291 292 292 293 294 295 295 296 296 296 297 297 298 299 299 300 300 300 301 301 302 302 303 303 303 304 304 305 306 307 306 306 307 307 309 309 307 306 305 304 303 303 303 304 303 302 301 297 294 291 288 288 288 288 289 292 297 300 303 301 300 300 299 298 300 301 298 295 292 287 284 285 287 288 290 291 290 287 286 285 284
287 288 288 289 290 291 291 292 293 294 294 295 295 296 296 297 298 298 298 299 299 300 300 301 301 302 302 302 303 303 304 304 305 306 305 306 307 308 308 308 306 305 304 304 303 302 302 303 302 300 299 295 291 288 286 286 287 288 289 292 295 297 299 298 298 297 297 297 298 299 295 292 289 285 284 285 287 289 291 290 288 286 287 286 281
286 287 287 289 289 290 291 292 292 293 293 294 294 295 296 297 297 297 298 298 299 299 299 300 300 301 301 302 302 303 303 303 304 304 305 306 307 307 307 307 306 305 304 302 302 301 301 301 300 298 296 291 287 285 284 285 287 288 290 291 293 296 296 295 294 295 294 295 297 297 293 290 286 284 284 285 287 289 289 287 287 288 288 283 278
285 286 287 288 288 289 290 291 291 292 292 293 294 295 296 296 296 297 297 298 298 299 299 299 300 300 301 301 302 302 302 303 304 304 304 306 306 307 306 306 305 303 302 301 300 300 300 300 298 296 293 289 286 285 285 286 288 289 290 291 293 295 294 291 291 291 291 293 295 294 290 287 285 284 284 284 287 288 287 286 288 289 285 280 278
284 285 286 287 288 288 289 290 290 291 291 292 293 294 295 295 296 296 297 297 298 298 299 299 299 300 300 301 301 301 302 302 303 303 304 305 306 306 305 305 304 302 301 301 300 300 299 298 297 295 292 290 288 288 288 288 289 289 290 292 293 293 290 287 287 287 289 291 293 291 288 284 283 284 283 284 286 285 285 287 288 287 281 277 278
283 284 285 286 287 287 288 288 289 290 291 292 293 294 294 295 295 296 296 297 297 298 298 299 299 299 300 300 300 301 301 302 302 303 304 305 305 305 304 304 303 302 301 301 300 299 298 297 295 293 291 289 289 289 290 290 290 289 291 292 293 291 286 283 283 284 287 289 290 288 287 283 282 283 282 282 282 283 286 288 288 284 279 277 278
282 283 284 285 286 286 287 287 288 289 290 291 292 293 293 294 295 295 296 296 297 297 298 298 299 299 300 300 300 300 300 301 302 303 304 304 304 304 304 303 303 302 301 300 299 298 296 295 293 292 290 289 289 290 290 291 290 290 291 291 291 287 281 278 279 281 285 286 286 287 285 282 282 282 280 279 278 281 286 289 288 282 277 278 278
282 283 283 284 284 285 286 287 288 289 290 291 291 292 293 293 294 295 295 295 295 296 297 298 299 299 299 299 299 299 300 301 302 303 303 303 304 303 303 302 302 302 301 299 298 296 294 293 292 291 290 290 290 290 291 291 291 290 289 288 287 284 277 274 276 280 282 282 283 285 284 281 281 280 277 276 275 279 286 289 287 280 276 278 277
281 281 282 282 283 284 285 286 287 288 289 290 291 291 292 293 293 294 294 295 295 296 297 298 298 298 298 298 298 300 301 302 302 303 303 303 304 303 303 302 302 302 300 299 297 296 294 292 291 291 290 290 290 291 291 291 291 288 283 283 284 281 274 271 275 278 279 278 281 284 283 280 280 278 274 272 272 277 283 287 285 279 275 277 276
280 280 281 281 282 284 285 286 287 288 289 290 290 291 292 292 293 293 294 294 295 296 297 298 298 297 297 297 298 300 301 302 303 303 303 303 303 303 303 303 303 302 300 299 297 297 295 292 291 291 291 291 291 291 291 290 288 282 276 278 281 278 270 270 275 276 275 275 279 283 282 279 278 275 271 269 270 275 281 285 283 277 273 275 275
280 280 280 281 283 284 285 286 287 288 288 289 289 290 291 292 293 293 294 295 295 296 297 297 297 296 296 297 299 300 301 303 303 303 303 304 304 304 303 303 303 300 298 298 298 299 299 296 294 294 294 294 294 293 291 289 284 274 270 273 277 275 267 270 274 273 272 272 278 281 280 278 276 272 268 266 268 273 279 283 281 275 271 272 274
279 279 280 282 283 284 285 286 287 288 288 288 289 290 291 292 293 294 294 295 295 296 295 295 295 295 297 299 300 301 302 302 303 304 305 305 305 303 302 303 302 299 296 296 299 302 302 302 300 298 298 297 296 293 290 285 277 268 266 269 274 271 265 270 271 269 269 271 277 279 278 276 273 269 264 264 266 271 277 281 279 273 269 270 273
278 279 280 282 283 284 285 286 286 287 287 288 288 289 291 292 293 294 294 295 294 294 294 294 294 296 299 300 300 301 301 302 303 306 306 304 304 302 303 305 304 301 298 296 300 303 303 305 306 303 300 299 295 291 286 279 273 267 262 264 270 267 263 268 269 267 268 271 276 277 275 273 270 266 262 262 263 268 275 279 277 271 268 269 272
278 279 281 282 283 284 284 285 286 286 287 287 289 290 291 292 293 294 294 294 293 293 293 293 295 298 299 300 300 300 301 301 303 306 305 303 302 302 305 308 307 304 300 300 303 305 305 305 305 304 301 298 294 288 283 278 274 269 262 262 267 266 262 264 267 266 268 271 275 275 273 271 268 263 259 260 261 266 273 277 276 271 267 267 270
278 280 281 282 282 283 283 284 285 286 287 288 289 291 291 292 293 293 293 293 292 293 293 294 297 298 300 300 299 299 300 301 303 305 303 303 303 304 308 308 306 302 299 302 305 305 305 305 305 304 301 298 294 288 283 280 278 273 266 262 263 264 262 262 264 265 268 271 273 273 271 269 265 260 258 259 260 264 271 275 275 270 267 267 269
279 279 280 281 282 283 283 284 285 286 288 289 290 291 292 292 292 291 291 292 292 293 294 296 298 299 300 300 298 299 300 301 303 302 300 302 304 306 308 306 304 300 299 302 303 304 304 304 304 303 300 296 292 287 283 281 279 273 268 264 260 261 262 261 262 265 267 270 272 271 269 266 262 258 257 258 259 262 268 274 274 270 266 266 269
277 277 278 280 281 282 283 285 286 287 288 289 289 290 292 291 290 290 291 291 291 293 295 298 299 299 298 296 298 300 301 303 303 300 298 300 303 305 304 302 302 301 302 303 304 306 304 304 304 301 296 290 285 281 281 281 277 270 267 265 261 260 260 260 263 264 265 268 270 269 267 264 260 258 258 259 259 260 266 271 273 269 265 265 267
273 274 276 278 280 283 283 285 286 286 287 288 289 291 291 289 288 291 290 289 291 295 299 299 298 297 296 295 300 302 302 303 303 302 301 302 305 305 303 301 300 301 302 305 306 306 305 303 302 298 292 285 281 278 277 277 274 268 266 268 264 260 257 260 264 264 264 267 268 266 266 262 259 259 260 260 258 259 264 269 271 269 264 263 265
272 273 274 275 278 281 282 283 284 284 286 287 289 290 288 287 286 286 286 287 293 297 298 297 295 295 295 298 302 302 302 302 302 303 303 304 306 305 304 303 302 302 303 305 306 304 303 302 300 296 290 284 280 278 275 272 271 268 267 268 264 259 258 261 265 262 262 265 264 264 264 260 258 260 262 262 258 257 262 266 269 268 263 261 262
274 274 275 276 277 277 279 281 282 283 285 287 287 285 283 284 283 281 284 289 293 294 294 294 293 292 295 300 303 302 301 301 302 303 303 303 303 302 304 304 303 304 304 305 304 302 302 301 299 297 293 287 282 278 274 269 267 267 267 268 266 264 263 264 263 259 258 261 261 262 262 259 259 261 264 263 259 257 260 265 266 267 264 260 259
275 276 277 278 277 277 279 281 281 282 283 282 282 281 281 281 280 283 287 289 290 290 290 291 291 293 298 300 301 304 303 302 304 306 305 303 300 301 303 304 305 304 303 303 302 301 301 300 299 297 295 290 284 280 276 268 264 265 267 268 269 268 265 263 260 255 255 257 258 260 259 259 260 263 264 263 261 258 259 263 265 264 263 260 258
277 277 277 278 278 279 280 279 278 281 282 278 277 277 278 277 279 284 286 287 289 288 286 288 292 296 299 299 302 304 302 303 306 306 304 300 298 301 303 303 303 302 301 301 302 302 301 300 299 296 295 292 286 281 277 270 262 261 264 266 266 266 264 262 257 252 253 255 256 258 258 258 261 263 262 262 262 259 259 263 264 262 260 260 259
277 277 278 278 280 280 278 277 279 280 279 276 275 277 278 276 279 284 284 283 284 283 284 289 295 299 301 305 306 302 298 300 301 299 298 297 298 301 304 304 303 302 304 304 303 302 300 301 300 295 293 290 286 281 276 270 261 257 258 261 262 264 264 262 256 250 250 253 254 254 255 258 261 261 261 261 263 261 260 263 264 263 259 259 260
278 279 280 279 279 279 277 279 281 279 274 274 276 278 278 276 278 283 282 279 278 281 286 289 294 299 303 307 305 299 298 297 295 292 294 297 301 307 308 307 306 305 306 306 305 303 301 301 299 294 290 288 286 281 275 267 258 255 257 260 262 263 264 262 255 249 249 250 249 250 253 257 258 259 261 262 262 261 261 263 264 264 261 257 260
278 279 279 279 279 280 279 279 279 278 276 276 276 275 276 277 278 279 277 277 279 283 284 283 285 283 288 299 300 299 296 290 285 286 291 295 301 308 306 303 304 306 306 307 307 306 303 301 296 289 288 287 282 278 274 267 258 255 256 259 261 263 265 261 251 248 250 248 246 250 253 255 256 258 261 263 263 262 261 261 263 265 263 259 259
273 275 277 279 279 279 281 279 277 278 277 277 277 276 277 278 278 276 275 277 278 280 278 274 274 270 274 289 292 288 282 277 275 282 291 293 297 302 298 297 302 303 304 306 307 304 301 300 294 287 287 283 278 277 276 271 262 256 256 257 258 264 266 258 249 248 250 249 248 251 254 255 257 260 263 264 265 264 262 260 261 264 265 261 259
270 274 276 277 278 279 280 277 273 274 276 279 280 280 281 281 279 276 275 276 276 277 274 271 270 268 264 263 265 265 266 270 275 284 291 293 298 302 297 296 299 300 302 307 308 303 300 297 290 287 287 280 277 279 277 272 263 257 257 256 256 264 264 256 250 246 247 250 252 253 254 255 258 261 263 264 264 265 264 262 259 261 265 262 261
269 272 273 275 277 277 275 274 274 273 275 278 280 283 284 284 282 279 278 277 275 274 273 272 269 267 259 248 245 247 255 265 276 284 285 289 296 300 297 295 296 297 300 303 300 297 297 293 291 293 292 284 280 279 275 268 261 260 263 259 256 262 262 254 248 244 247 253 254 255 255 256 257 260 263 264 263 263 264 264 260 259 263 261 261
268 270 271 273 273 272 272 277 279 276 276 276 277 281 280 279 278 277 275 273 273 272 271 270 266 264 259 252 244 242 250 259 270 277 278 284 289 292 294 293 292 290 289 290 281 273 272 276 285 293 296 292 286 282 275 266 265 270 272 267 261 260 256 249 246 246 251 255 256 256 256 257 259 260 263 264 263 262 263 264 261 258 260 260 262
266 267 270 271 271 271 272 275 275 275 276 275 275 277 274 271 272 272 270 269 270 268 266 266 267 266 261 254 244 241 248 254 264 273 278 283 286 288 288 285 285 284 282 284 275 261 258 262 271 281 291 294 289 286 280 272 275 274 270 267 261 256 253 251 252 253 254 257 258 258 257 258 260 263 264 265 264 263 262 264 261 256 257 258 262
267 268 269 269 270 270 270 268 268 269 269 269 270 272 269 265 266 266 265 267 268 267 266 265 265 264 257 248 240 242 249 256 267 276 281 284 283 281 278 271 273 276 273 274 271 264 260 263 269 276 288 293 287 284 280 274 274 272 266 264 261 258 258 258 257 257 257 259 260 259 257 259 263 266 265 265 265 263 261 261 259 254 253 255 258
269 269 269 270 270 269 267 264 265 265 262 265 265 265 265 263 263 263 262 267 270 267 261 252 247 250 249 245 244 250 260 268 276 280 282 281 278 276 272 263 263 267 264 266 268 264 262 266 272 280 287 289 285 281 276 270 270 272 270 268 266 263 261 260 258 257 256 257 261 262 260 263 266 266 265 265 266 264 260 259 257 253 251 251 253
270 270 270 270 269 268 267 265 265 261 258 261 261 260 262 263 262 264 269 273 272 266 256 246 242 246 249 250 255 262 272 279 282 281 278 276 274 272 266 256 256 259 256 258 263 263 264 267 272 279 279 280 283 279 270 263 260 262 263 266 266 264 261 259 258 257 256 259 265 268 267 267 267 266 265 266 266 263 259 257 257 255 252 251 252
270 271 271 271 270 269 267 266 263 260 259 257 260 263 261 262 264 265 270 271 267 264 259 252 250 258 266 270 274 277 281 284 282 278 273 271 269 266 260 251 248 249 250 253 259 262 264 266 271 273 268 269 277 277 270 260 256 255 255 259 262 263 263 260 261 264 264 262 262 264 266 266 266 265 265 265 264 263 259 257 257 257 256 255 254
271 271 271 272 272 271 268 265 258 257 262 263 265 267 263 263 267 267 267 266 263 261 261 263 268 276 282 284 285 285 283 281 277 273 269 266 263 259 256 249 244 243 244 247 256 261 260 262 267 268 267 267 270 274 276 269 263 261 259 260 261 262 261 259 266 271 267 261 256 257 262 264 265 266 266 264 263 263 262 259 258 259 259 259 258
271 271 272 272 272 272 269 264 257 253 261 265 264 267 270 268 267 265 263 261 260 264 270 277 281 283 285 285 284 282 278 275 272 269 266 263 259 255 250 247 245 245 246 248 251 252 251 255 258 260 272 276 272 273 276 277 272 266 265 266 264 261 259 261 269 271 267 266 262 260 264 266 266 267 265 262 260 260 261 260 260 260 260 261 260
272 272 273 274 273 271 268 264 259 248 244 252 259 268 273 263 253 249 250 255 262 270 275 278 280 282 281 281 279 277 274 271 268 265 262 259 255 249 242 243 247 246 247 246 243 244 248 253 251 249 260 264 264 270 278 282 278 274 273 272 268 265 264 266 268 266 265 268 267 264 262 261 262 262 260 259 258 257 257 258 258 259 260 260 260
273 274 274 273 270 269 268 265 260 250 241 248 260 260 240 233 236 241 247 257 267 272 275 276 279 280 279 278 277 275 273 270 266 262 258 253 248 241 234 235 242 240 239 237 236 244 251 253 251 246 237 235 251 265 279 283 280 277 276 273 271 270 270 268 265 262 264 267 268 266 260 253 253 259 264 267 264 260 257 256 256 257 259 260 260
275 276 276 272 269 269 269 265 258 252 245 249 256 237 227 235 239 246 256 266 273 277 279 280 282 281 280 279 277 274 272 268 264 260 254 247 241 234 227 227 234 235 233 233 236 243 248 249 252 248 241 242 253 266 278 281 280 278 274 271 270 269 270 267 263 261 264 267 267 266 260 251 247 254 266 271 269 266 260 256 256 258 259 260 260
277 279 277 274 272 271 269 264 257 251 246 247 247 236 239 245 248 257 268 273 278 281 282 283 282 281 279 278 275 272 269 265 262 257 251 243 234 228 223 221 226 232 233 234 235 242 249 249 250 250 247 248 255 269 279 280 277 275 272 268 266 266 264 263 264 263 264 266 265 262 255 248 246 251 260 265 265 264 262 261 261 260 259 258 257
280 278 275 274 274 272 269 264 258 252 248 245 243 243 249 254 260 267 273 276 280 282 283 283 280 278 277 275 272 269 266 263 260 255 247 240 230 225 224 220 220 227 232 234 236 240 247 251 250 251 252 253 259 269 277 276 270 268 268 265 263 264 259 259 264 265 266 266 262 259 253 249 250 249 247 250 254 259 260 263 264 262 260 259 257
280 276 274 274 275 274 271 267 260 254 252 249 248 251 255 259 264 268 272 276 279 280 281 281 279 276 275 272 269 267 264 261 257 253 245 238 230 225 225 222 220 224 229 232 235 237 241 247 250 250 253 255 258 262 266 270 271 269 266 264 263 262 257 255 261 267 270 267 260 256 254 249 244 239 238 241 247 253 255 255 258 259 260 261 257
277 276 275 276 276 275 272 268 263 256 255 255 255 257 258 261 265 269 272 276 278 279 279 279 278 277 274 270 268 266 264 258 254 250 244 236 230 225 224 224 224 225 228 230 232 235 241 246 248 249 249 250 249 249 254 265 269 264 262 263 264 260 255 255 261 268 269 267 261 255 251 247 243 244 247 250 251 251 248 246 249 251 252 254 254
274 274 274 275 275 274 273 272 267 261 258 254 254 260 264 267 271 275 278 279 279 279 278 278 278 277 274 270 267 265 264 260 253 247 241 233 227 225 223 224 226 227 228 230 231 237 244 246 244 243 242 242 244 246 252 258 258 257 259 262 264 261 259 260 262 263 263 266 264 256 252 249 248 251 254 256 256 254 250 248 248 248 247 250 252
274 274 274 276 275 275 275 274 270 266 263 253 250 259 266 270 276 281 282 281 280 279 278 278 278 276 273 269 267 267 265 261 255 248 239 230 224 221 221 223 225 226 228 230 232 237 242 241 236 238 240 241 246 251 253 253 254 256 255 255 261 262 263 264 261 258 258 261 262 260 258 257 256 255 255 256 257 257 256 253 251 250 249 251 253
275 276 278 279 279 278 277 278 275 270 267 251 246 259 268 272 278 282 283 282 280 279 279 278 276 273 271 268 267 267 267 263 257 250 241 232 226 221 219 220 222 224 225 228 230 233 235 236 235 238 243 244 246 250 252 249 249 252 250 252 258 259 260 259 255 255 254 253 256 260 262 263 263 261 259 260 262 262 261 258 255 252 251 252 254
277 280 284 286 289 289 284 281 275 276 273 249 250 267 275 277 280 282 283 282 280 279 279 277 275 271 268 266 264 263 264 262 257 252 245 238 233 228 223 221 222 223 223 225 227 229 232 235 238 241 244 245 245 247 249 247 245 245 246 249 255 257 256 255 253 252 252 251 253 257 259 262 265 266 266 266 266 267 266 263 259 256 254 253 252
277 280 283 289 299 299 285 273 272 280 272 253 261 275 279 280 283 283 282 280 279 279 277 275 273 270 268 265 264 263 261 260 258 255 250 245 239 236 232 228 226 226 226 228 230 233 235 238 241 243 244 245 246 247 248 247 244 240 241 244 250 255 254 254 254 250 248 248 250 253 257 261 264 266 267 268 268 269 268 266 263 259 257 254 253
283 285 280 282 286 280 272 270 276 275 254 256 268 274 277 281 283 282 282 280 278 276 273 271 270 268 268 267 267 265 262 260 258 256 254 252 248 244 240 236 234 232 231 232 234 236 238 239 241 242 244 246 248 248 248 246 240 234 236 243 248 250 249 250 252 249 246 246 248 250 254 259 262 264 267 269 271 271 270 268 266 263 260 257 255
254 248 233 229 228 232 246 257 259 245 239 256 267 271 276 279 277 277 278 278 277 274 271 269 267 268 269 269 268 266 263 260 257 256 255 255 254 252 250 247 243 241 239 239 239 240 240 242 243 245 246 247 248 247 245 242 236 232 236 241 242 245 246 246 246 246 247 248 249 252 256 258 260 263 266 269 271 272 272 271 269 267 265 261 259
212 221 218 214 215 214 217 230 232 221 229 249 261 270 273 269 269 272 273 275 275 272 271 270 270 271 271 271 270 268 265 262 259 258 256 256 255 255 255 254 252 250 249 248 247 247 247 248 248 248 248 247 246 244 242 241 239 237 236 235 235 240 243 242 240 242 246 250 251 254 257 258 259 262 265 267 268 270 271 271 269 267 265 264 262
Height
10902 10901 10901 10901 10900 10899 10898 10897 10896 10894 10893 10891 10890 10888 10886 10884 10882 10881 10881 10880 10879 10878 10877 10876 10874 10873 10871 10868 10865 10863 10860 10858 10855 10853 10851 10849 10847 10845 10843 10839 10835 10833 10831 10829 10826 10825 10822 10821 10819 10818 10817 10816 10816 10814 10813 10812 10810 10809 10809 10808 10807 10806 10805 10804 10803 10801 10800 10799 10797 10796 10794 10793 10791 10790 10789 10788 10787 10786 10786 10785 10784 10783 10783 10783 10783
10898 10898 10897 10897 10896 10895 10893 10892 10891 10890 10888 10886 10885 10883 10882 10879 10878 10876 10875 10874 10873 10873 10872 10871 10869 10868 10865 10863 10860 10858 10855 10853 10851 10848 10845 10844 10842 10840 10837 10834 10831 10828 10826 10824 10822 10820 10818 10816 10815 10813 10812 10812 10811 10810 10808 10807 10806 10805 10804 10804 10803 10802 10801 10800 10799 10798 10797 10796 10795 10793 10791 10790 10789 10788 10787 10786 10785 10784 10783 10783 10782 10781 10781 10781 10781
10895 10894 10893 10893 10891 10890 10889 10888 10887 10885 10883 10881 10880 10878 10877 10875 10873 10871 10869 10868 10868 10867 10867 10866 10864 10862 10860 10857 10855 10852 10850 10848 10846 10843 10840 10838 10836 10834 10832 10829 10826 10823 10821 10819 10817 10815 10813 10811 10810 10809 10808 10807 10806 10805 10803 10802 10801 10801 10800 10799 10799 10798 10796 10796 10795 10794 10794 10793 10791 10790 10789 10787 10786 10786 10785 10784 10783 10782 10781 10780 10780 10780 10779 10779 10779
10891 10890 10890 10889 10888 10886 10884 10883 10882 10880 10879 10876 10875 10873 10872 10870 10868 10866 10864 10863 10862 10862 10861 10860 10858 10856 10854 10852 10849 10847 10844 10842 10841 10838 10835 10832 10830 10827 10826 10823 10820 10818 10816 10814 10812 10810 10808 10806 10804 10803 10802 10801 10800 10799 10798 10797 10797 10796 10796 10795 10794 10793 10792 10792 10791 10791 10790 10789 10788 10787 10786 10785 10784 10783 10782 10781 10780 10779 10779 10778 10778 10778 10777 10777 10777
10888 10887 10886 10885 10883 10882 10880 10879 10877 10876 10874 10872 10871 10869 10867 10865 10863 10861 10859 10857 10856 10856 10855 10854 10852 10850 10848 10846 10843 10841 10838 10837 10835 10833 10830 10828 10825 10822 10819 10818 10815 10812 10810 10808 10806 10804 10802 10800 10799 10798 10796 10795 10794 10794 10793 10793 10793 10792 10791 10790 10789 10789 10788 10787 10787 10787 10787 10786 10785 10784 10783 10782 10781 10780 10780 10779 10778 10777 10777 10776 10776 10776 10775 10775 10775
10884 10883 10882 10881 10879 10877 10875 10874 10872 10871 10869 10868 10866 10864 10862 10859 10858 10856 10854 10852 10851 10850 10849 10848 10846 10845 10843 10840 10838 10835 10833 10831 10829 10827 10825 10822 10820 10816 10814 10812 10809 10807 10804 10802 10801 10799 10796 10794 10793 10792 10791 10789 10789 10788 10788 10788 10788 10788 10787 10786 10785 10784 10784 10783 10783 10783 10783 10783 10782 10781 10780 10779 10779 10778 10777 10776 10776 10775 10774 10774 10774 10774 10774 10774 10774
10880 10879 10877 10876 10874 10872 10871 10869 10868 10866 10865 10863 10861 10858 10856 10854 10852 10851 10849 10847 10845 10844 10842 10841 10840 10839 10837 10835 10832 10830 10827 10825 10823 10822 10819 10817 10815 10811 10808 10806 10803 10801 10799 10796 10795 10793 10791 10789 10787 10786 10785 10784 10783 10783 10783 10784 10784 10783 10782 10781 10780 10780 10779 10779 10779 10780 10779 10779 10779 10778 10778 10777 10776 10775 10775 10774 10774 10773 10772 10772 10772 10772 10772 10772 10772
10875 10874 10872 10870 10868 10867 10866 10865 10863 10862 10861 10858 10855 10853 10850 10849 10847 10845 10844 10841 10839 10838 10836 10835 10834 10833 10831 10829 10826 10824 10822 10819 10817 10815 10813 10812 10809 10806 10803 10800 10798 10796 10794 10791 10788 10787 10785 10783 10781 10780 10780 10779 10778 10778 10779 10779 10779 10779 10778 10777 10776 10776 10775 10775 10776 10776 10776 10776 10776 10775 10775 10774 10774 10773 10772 10772 10771 10771 10771 10770 10770 10770 10770 10770 10770
10870 10869 10866 10864 10863 10862 10861 10860 10859 10857 10855 10853 10850 10847 10845 10843 10841 10839 10838 10835 10833 10832 10831 10829 10828 10826 10824 10822 10821 10819 10817 10814 10811 10809 10807 10805 10804 10801 10797 10795 10793 10790 10788 10785 10783 10781 10780 10778 10776 10775 10774 10774 10773 10773 10774 10774 10775 10775 10774 10773 10772 10772 10772 10772 10773 10773 10772 10773 10773 10772 10772 10772 10771 10771 10770 10769 10769 10769 10769 10768 10768 10768 10768 10768 10768
10864 10862 10860 10859 10858 10857 10857 10856 10854 10852 10850 10848 10846 10842 10839 10837 10835 10833 10832 10830 10828 10826 10825 10823 10821 10819 10818 10817 10816 10815 10812 10809 10806 10803 10801 10799 10797 10795 10792 10789 10787 10785 10783 10780 10778 10776 10774 10773 10771 10770 10769 10769 10769 10769 10769 10770 10770 10770 10770 10769 10769 10768 10768 10769 10769 10769 10769 10770 10770 10770 10769 10769 10769 10768 10767 10767 10767 10767 10766 10766 10766 10765 10766 10766 10766
10858 10856 10855 10854 10853 10853 10852 10851 10848 10846 10844 10843 10841 10837 10834 10832 10829 10828 10826 10824 10822 10820 10818 10816 10815 10813 10811 10811 10811 10810 10807 10804 10800 10797 10795 10793 10791 10788 10786 10784 10782 10780 10778 10776 10774 10772 10769 10768 10766 10765 10764 10764 10764 10764 10764 10765 10765 10765 10766 10766 10765 10765 10765 10766 10766 10766 10766 10766 10767 10767 10766 10766 10766 10766 10765 10765 10764 10764 10764 10764 10764 10763 10763 10764 10764
10851 10849 10849 10849 10849 10849 10848 10846 10843 10841 10838 10836 10834 10832 10829 10827 10824 10823 10822 10819 10817 10814 10812 10810 10808 10806 10806 10805 10804 10804 10802 10799 10795 10792 10790 10787 10784 10782 10781 10779 10777 10775 10773 10772 10770 10768 10765 10763 10762 10761 10760 10759 10759 10759 10760 10760 10761 10761 10762 10762 10762 10762 10762 10763 10763 10763 10763 10763 10763 10764 10763 10763 10763 10763 10763 10762 10762 10762 10762 10762 10761 10761 10761 10761 10762
10845 10844 10845 10845 10845 10844 10843 10840 10837 10834 10832 10830 10827 10826 10824 10821 10819 10818 10816 10814 10811 10808 10806 10804 10802 10801 10800 10799 10798 10797 10796 10793 10791 10788 10785 10782 10780 10777 10776 10774 10772 10770 10768 10767 10765 10763 10761 10759 10758 10757 10756 10755 10755 10755 10756 10756 10757 10758 10758 10758 10758 10758 10759 10759 10759 10760 10760 10760 10760 10761 10760 10760 10760 10760 10760 10760 10760 10759 10759 10759 10759 10759 10759 10759 10759
10840 10840 10840 10839 10840 10839 10837 10834 10831 10828 10826 10824 10822 10821 10819 10816 10814 10812 10810 10807 10805 10803 10800 10798 10797 10796 10794 10793 10793 10792 10790 10788 10787 10785 10781 10778 10776 10773 10770 10768 10766 10765 10764 10762 10760 10759 10757 10755 10755 10753 10752 10751 10751 10752 10752 10752 10753 10754 10754 10755 10755 10755 10755 10756 10756 10756 10756 10757 10757 10757 10757 10757 10757 10757 10757 10757 10757 10757 10757 10757 10757 10757 10757 10757 10757
10837 10837 10835 10834 10834 10833 10831 10828 10825 10823 10822 10820 10818 10816 10814 10812 10809 10806 10803 10801 10799 10797 10795 10793 10792 10790 10789 10788 10787 10786 10784 10784 10783 10781 10777 10773 10771 10768 10765 10762 10761 10761 10759 10757 10755 10754 10752 10751 10751 10749 10748 10747 10748 10748 10748 10749 10750 10750 10750 10751 10752 10751 10752 10753 10753 10753 10753 10754 10754 10754 10754 10754 10755 10755 10755 10755 10755 10755 10755 10754 10754 10755 10755 10755 10755
10835 10831 10829 10830 10829 10827 10825 10822 10820 10819 10817 10815 10813 10811 10809 10807 10804 10801 10797 10796 10794 10792 10791 10789 10786 10785 10784 10784 10782 10779 10778 10779 10779 10777 10773 10768 10765 10762 10759 10758 10756 10755 10754 10752 10750 10749 10747 10747 10747 10746 10745 10744 10745 10745 10745 10745 10746 10746 10746 10748 10748 10748 10749 10750 10750 10750 10750 10750 10751 10751 10751 10751 10752 10752 10752 10752 10753 10753 10752 10752 10752 10753 10753 10753 10753
10831 10825 10823 10826 10825 10823 10820 10817 10817 10815 10813 10810 10807 10805 10803 10801 10798 10795 10793 10792 10790 10787 10786 10784 10782 10780 10780 10779 10776 10773 10771 10772 10772 10770 10768 10764 10761 10758 10755 10754 10752 10751 10749 10747 10746 10745 10743 10743 10744 10743 10743 10741 10741 10742 10741 10742 10743 10742 10743 10744 10744 10745 10746 10747 10747 10748 10747 10747 10748 10748 10748 10748 10749 10749 10750 10750 10750 10750 10750 10750 10750 10750 10751 10751 10751
10825 10820 10821 10825 10823 10819 10817 10815 10813 10810 10809 10806 10803 10800 10796 10794 10791 10789 10789 10788 10786 10783 10781 10779 10777 10774 10774 10773 10770 10767 10764 10764 10764 10763 10761 10758 10756 10753 10750 10749 10747 10746 10745 10742 10741 10740 10739 10739 10739 10740 10740 10739 10738 10738 10738 10739 10739 10739 10740 10740 10741 10742 10743 10744 10745 10744 10745 10745 10745 10745 10745 10745 10746 10746 10747 10748 10748 10748 10748 10748 10748 10748 10749 10749 10749
10815 10813 10817 10822 10822 10818 10815 10814 10810 10807 10807 10801 10800 10796 10790 10788 10785 10785 10784 10782 10781 10779 10778 10775 10772 10770 10768 10767 10764 10761 10759 10758 10757 10757 10755 10753 10750 10747 10745 10743 10742 10741 10740 10738 10736 10736 10735 10734 10734 10735 10736 10736 10735 10735 10735 10735 10736 10736 10737 10737 10738 10739 10741 10742 10742 10742 10742 10742 10742 10742 10742 10743 10743 10743 10744 10745 10746 10746 10746 10746 10746 10746 10746 10746 10747
10807 10807 10811 10816 10819 10816 10813 10814 10806 10801 10803 10799 10795 10791 10786 10785 10783 10780 10778 10776 10776 10776 10775 10773 10769 10766 10764 10762 10760 10756 10755 10754 10753 10751 10749 10747 10744 10741 10740 10738 10737 10737 10736 10735 10733 10732 10731 10730 10729 10730 10731 10732 10731 10731 10732 10732 10733 10733 10733 10734 10735 10737 10738 10739 10739 10739 10739 10738 10738 10739 10739 10740 10740 10741 10741 10742 10742 10743 10743 10743 10743 10743 10744 10744 10744
10801 10801 10804 10808 10812 10813 10813 10810 10800 10795 10799 10797 10790 10785 10784 10785 10783 10775 10772 10772 10771 10772 10772 10770 10766 10763 10760 10758 10756 10753 10750 10750 10748 10746 10744 10742 10740 10738 10736 10735 10734 10733 10733 10732 10730 10729 10727 10725 10725 10725 10725 10727 10727 10727 10728 10728 10730 10730 10730 10731 10732 10734 10734 10735 10737 10737 10735 10734 10735 10736 10737 10737 10738 10738 10738 10739 10739 10740 10741 10741 10741 10741 10741 10742 10742
10794 10794 10796 10799 10804 10811 10810 10799 10793 10794 10793 10789 10783 10780 10782 10784 10781 10772 10769 10768 10767 10768 10768 10767 10764 10760 10757 10754 10752 10751 10748 10746 10744 10742 10740 10739 10737 10735 10734 10732 10731 10730 10730 10728 10727 10725 10724 10722 10721 10720 10720 10722 10723 10724 10724 10725 10726 10727 10727 10728 10729 10731 10731 10732 10734 10734 10732 10731 10732 10734 10734 10734 10735 10735 10736 10736 10736 10737 10737 10738 10738 10738 10739 10739 10739
10786 10785 10789 10792 10796 10803 10799 10787 10788 10792 10787 10780 10777 10777 10778 10781 10777 10767 10764 10764 10763 10764 10764 10764 10761 10757 10753 10751 10750 10749 10747 10743 10740 10738 10736 10735 10734 10733 10731 10730 10728 10726 10725 10724 10722 10721 10720 10718 10717 10717 10716 10717 10718 10720 10722 10722 10722 10723 10724 10725 10726 10728 10728 10730 10731 10731 10729 10727 10729 10731 10731 10731 10732 10732 10733 10733 10733 10733 10734 10735 10735 10736 10736 10737 10737
10780 10780 10784 10784 10787 10789 10783 10780 10783 10784 10779 10774 10772 10773 10773 10775 10773 10763 10759 10760 10759 10761 10762 10762 10760 10755 10750 10750 10750 10747 10743 10738 10735 10732 10731 10732 10731 10730 10728 10726 10725 10723 10722 10720 10719 10717 10715 10714 10713 10712 10712 10713 10714 10716 10718 10719 10719 10719 10721 10722 10723 10724 10726 10728 10728 10727 10724 10724 10726 10727 10727 10728 10729 10729 10730 10730 10730 10731 10731 10731 10732 10732 10733 10734 10734
10776 10776 10778 10778 10779 10775 10772 10777 10779 10773 10768 10766 10765 10766 10767 10768 10766 10760 10757 10758 10757 10757 10760 10760 10757 10753 10749 10750 10750 10744 10737 10731 10729 10728 10727 10729 10727 10726 10724 10722 10722 10721 10719 10718 10716 10713 10710 10709 10708 10708 10709 10709 10711 10712 10714 10715 10716 10716 10718 10719 10721 10722 10723 10724 10725 10723 10720 10721 10724 10724 10725 10725 10726 10726 10727 10727 10727 10728 10728 10728 10729 10729 10730 10731 10731
10770 10770 10773 10773 10771 10767 10769 10778 10776 10767 10759 10757 10757 10759 10761 10760 10759 10757 10756 10756 10754 10753 10755 10755 10752 10749 10748 10750 10749 10743 10731 10723 10725 10727 10726 10726 10724 10723 10721 10720 10720 10719 10717 10715 10712 10710 10708 10706 10704 10704 10706 10706 10707 10709 10710 10712 10713 10714 10715 10716 10718 10719 10721 10721 10722 10721 10718 10719 10721 10722 10722 10722 10723 10723 10723 10724 10724 10724 10725 10725 10725 10726 10726 10727 10728
10764 10765 10768 10767 10765 10763 10767 10775 10774 10765 10755 10749 10748 10751 10754 10753 10753 10753 10753 10753 10751 10749 10748 10747 10746 10744 10745 10747 10745 10739 10725 10717 10723 10727 10725 10724 10722 10720 10718 10718 10719 10717 10715 10713 10709 10706 10705 10703 10701 10701 10703 10704 10705 10707 10708 10709 10710 10711 10712 10713 10715 10717 10718 10719 10720 10720 10717 10717 10719 10719 10719 10720 10720 10720 10720 10720 10720 10720 10721 10722 10722 10722 10723 10724 10724
10760 10761 10762 10762 10762 10761 10763 10769 10768 10760 10755 10748 10744 10747 10748 10746 10746 10747 10748 10748 10746 10744 10741 10739 10738 10737 10738 10738 10736 10730 10721 10717 10723 10725 10723 10721 10720 10720 10718 10717 10717 10714 10712 10712 10709 10704 10702 10700 10700 10701 10702 10702 10703 10705 10706 10707 10708 10709 10710 10711 10713 10714 10715 10717 10717 10717 10716 10715 10716 10716 10717 10717 10717 10717 10716 10716 10716 10716 10717 10718 10719 10719 10720 10720 10721
10756 10757 10756 10757 10760 10759 10760 10763 10759 10751 10751 10749 10744 10745 10745 10743 10742 10742 10743 10743 10740 10736 10733 10731 10730 10729 10729 10728 10728 10726 10721 10720 10723 10722 10720 10719 10720 10722 10721 10719 10717 10714 10711 10711 10709 10705 10701 10699 10699 10700 10701 10701 10702 10703 10704 10705 10706 10708 10709 10709 10710 10712 10713 10714 10714 10714 10714 10713 10713 10714 10714 10714 10714 10713 10713 10713 10713 10713 10713 10714 10715 10716 10716 10717 10717
10751 10751 10751 10753 10755 10756 10757 10758 10753 10746 10746 10745 10742 10742 10742 10741 10739 10738 10739 10737 10734 10729 10727 10725 10723 10723 10722 10722 10723 10723 10722 10721 10721 10718 10717 10718 10720 10722 10722 10720 10717 10714 10712 10711 10710 10707 10704 10701 10700 10701 10701 10701 10701 10701 10702 10704 10705 10707 10708 10707 10708 10709 10710 10711 10712 10713 10713 10711 10710 10710 10710 10710 10710 10710 10710 10710 10709 10709 10710 10711 10711 10712 10713 10713 10714
10745 10745 10746 10748 10749 10751 10752 10753 10748 10743 10741 10739 10738 10739 10737 10736 10734 10734 10735 10732 10728 10724 10721 10719 10718 10718 10717 10718 10719 10720 10720 10720 10718 10715 10715 10716 10718 10720 10721 10720 10717 10715 10712 10710 10710 10709 10707 10704 10702 10702 10702 10701 10700 10700 10701 10702 10703 10705 10706 10706 10706 10708 10708 10708 10709 10710 10711 10709 10707 10706 10707 10706 10706 10706 10706 10706 10706 10706 10706 10707 10707 10708 10709 10710 10710
10737 10738 10739 10741 10743 10743 10745 10747 10743 10740 10738 10733 10730 10732 10730 10730 10730 10729 10729 10727 10723 10719 10717 10715 10715 10714 10713 10714 10716 10718 10718 10716 10714 10712 10712 10713 10714 10717 10717 10717 10716 10715 10712 10709 10709 10708 10707 10705 10703 10703 10702 10699 10697 10698 10698 10700 10701 10702 10704 10704 10704 10705 10705 10705 10706 10707 10709 10707 10704 10703 10702 10702 10701 10702 10702 10702 10702 10702 10702 10703 10703 10704 10705 10705 10706
10729 10731 10733 10735 10736 10736 10738 10742 10739 10733 10733 10730 10724 10723 10723 10724 10724 10723 10723 10721 10718 10714 10711 10710 10710 10708 10706 10708 10711 10714 10713 10711 10709 10708 10708 10709 10710 10713 10713 10711 10712 10712 10710 10708 10707 10706 10705 10704 10703 10702 10701 10697 10694 10695 10695 10696 10698 10700 10701 10701 10702 10702 10703 10703 10704 10705 10706 10706 10703 10698 10696 10696 10696 10697 10698 10698 10697 10697 10698 10699 10699 10700 10700 10701 10702
10722 10723 10725 10727 10729 10729 10732 10738 10736 10726 10723 10725 10721 10718 10718 10718 10718 10718 10717 10716 10713 10710 10706 10704 10704 10702 10700 10702 10704 10707 10707 10705 10704 10703 10703 10704 10707 10709 10708 10705 10706 10708 10706 10705 10705 10704 10703 10702 10701 10700 10698 10695 10692 10691 10692 10693 10695 10697 10698 10699 10698 10699 10701 10701 10701 10701 10702 10703 10701 10693 10690 10692 10693 10693 10693 10693 10693 10693 10694 10694 10695 10696 10696 10697 10698
10715 10716 10718 10723 10723 10723 10726 10732 10733 10723 10715 10717 10717 10716 10714 10713 10714 10712 10710 10710 10708 10707 10703 10700 10700 10698 10695 10695 10697 10699 10699 10698 10698 10698 10697 10699 10702 10705 10705 10700 10699 10701 10701 10701 10702 10701 10701 10699 10699 10697 10695 10693 10689 10688 10690 10691 10692 10694 10696 10696 10695 10696 10697 10697 10697 10696 10694 10695 10695 10690 10689 10690 10689 10688 10689 10689 10689 10690 10690 10691 10691 10692 10692 10693 10694
10708 10709 10714 10721 10719 10716 10719 10723 10724 10719 10712 10710 10710 10710 10708 10706 10708 10706 10703 10703 10702 10701 10699 10696 10695 10694 10692 10691 10690 10691 10692 10692 10691 10691 10692 10693 10697 10701 10701 10694 10692 10694 10695 10696 10698 10696 10696 10695 10695 10694 10691 10690 10688 10686 10687 10688 10689 10691 10692 10692 10692 10693 10694 10693 10692 10690 10688 10689 10690 10688 10688 10687 10686 10686 10685 10685 10686 10687 10687 10687 10687 10688 10688 10688 10689
10701 10704 10710 10716 10713 10709 10711 10714 10715 10714 10710 10706 10705 10706 10705 10703 10702 10700 10698 10697 10696 10696 10695 10693 10691 10690 10689 10687 10686 10685 10685 10685 10685 10685 10686 10688 10691 10695 10696 10689 10685 10688 10689 10691 10692 10691 10691 10691 10692 10690 10688 10688 10687 10685 10685 10685 10685 10686 10687 10688 10688 10689 10689 10688 10687 10685 10685 10687 10687 10686 10686 10684 10683 10683 10682 10682 10683 10683 10684 10684 10684 10685 10685 10685 10685
10695 10699 10707 10709 10705 10702 10704 10707 10707 10707 10706 10704 10703 10704 10703 10701 10697 10695 10694 10693 10692 10691 10691 10690 10687 10686 10685 10683 10682 10679 10679 10679 10679 10679 10680 10682 10686 10689 10690 10685 10680 10681 10684 10686 10686 10686 10687 10687 10687 10687 10686 10685 10683 10682 10684 10683 10682 10682 10682 10683 10685 10686 10685 10682 10680 10681 10681 10683 10683 10683 10685 10684 10683 10681 10680 10680 10680 10680 10680 10681 10681 10681 10681 10681 10681
10690 10695 10699 10699 10696 10697 10698 10699 10698 10699 10699 10699 10700 10698 10696 10694 10692 10690 10689 10688 10687 10686 10686 10685 10683 10681 10679 10678 10677 10675 10674 10673 10673 10673 10674 10677 10681 10683 10684 10681 10675 10676 10679 10680 10680 10680 10681 10683 10683 10684 10682 10681 10680 10679 10679 10680 10680 10680 10679 10679 10680 10683 10684 10678 10674 10676 10677 10678 10678 10679 10682 10684 10683 10682 10679 10678 10677 10676 10677 10677 10677 10677 10677 10677 10676
10686 10691 10690 10686 10687 10690 10692 10691 10690 10691 10692 10692 10692 10688 10686 10686 10686 10685 10683 10682 10680 10679 10679 10678 10676 10675 10673 10673 10672 10671 10670 10668 10668 10668 10669 10671 10675 10677 10677 10676 10672 10672 10675 10676 10676 10675 10675 10677 10679 10679 10679 10678 10678 10676 10675 10676 10677 10678 10677 10676 10677 10680 10681 10674 10668 10671 10673 10674 10674 10675 10678 10680 10681 10682 10679 10675 10673 10672 10674 10674 10673 10673 10673 10672 10672
10683 10685 10681 10677 10679 10683 10684 10684 10684 10684 10684 10685 10683 10679 10678 10680 10680 10678 10676 10674 10674 10673 10672 10671 10671 10670 10668 10668 10667 10667 10666 10664 10663 10663 10664 10666 10668 10670 10671 10671 10670 10669 10671 10672 10672 10671 10672 10673 10675 10675 10675 10675 10675 10674 10673 10673 10674 10674 10674 10674 10674 10676 10677 10671 10665 10667 10668 10670 10671 10672 10674 10675 10676 10677 10676 10673 10670 10670 10672 10671 10668 10668 10669 10669 10668
10677 10675 10672 10672 10674 10676 10677 10677 10679 10679 10678 10678 10676 10674 10674 10675 10674 10673 10670 10668 10667 10666 10666 10666 10666 10665 10664 10663 10662 10662 10662 10661 10660 10659 10660 10661 10662 10664 10665 10666 10666 10666 10667 10668 10668 10668 10669 10670 10671 10671 10671 10672 10672 10672 10673 10671 10669 10670 10670 10670 10670 10671 10671 10668 10664 10663 10664 10666 10668 10669 10671 10672 10672 10672 10671 10670 10670 10670 10671 10669 10665 10664 10665 10664 10663
10670 10666 10665 10667 10669 10670 10671 10672 10674 10673 10672 10673 10670 10668 10669 10669 10669 10668 10665 10663 10661 10661 10661 10661 10661 10660 10659 10658 10657 10657 10657 10657 10657 10656 10656 10657 10658 10659 10659 10660 10661 10662 10662 10663 10664 10664 10665 10667 10669 10669 10669 10669 10669 10669 10671 10669 10667 10666 10666 10665 10666 10666 10666 10664 10662 10661 10661 10663 10665 10666 10668 10668 10668 10668 10668 10668 10668 10669 10669 10667 10663 10662 10662 10661 10660
10664 10662 10662 10665 10667 10666 10666 10668 10669 10668 10668 10669 10666 10663 10663 10663 10663 10661 10659 10657 10656 10656 10656 10656 10656 10655 10655 10654 10654 10653 10653 10653 10653 10653 10652 10653 10654 10655 10656 10656 10657 10658 10658 10659 10660 10661 10660 10662 10665 10666 10666 10666 10665 10666 10668 10667 10665 10663 10663 10662 10662 10663 10662 10661 10660 10659 10660 10660 10661 10662 10662 10662 10663 10664 10664 10664 10664 10665 10665 10664 10661 10660 10659 10658 10659
10661 10660 10660 10663 10665 10664 10664 10665 10665 10665 10666 10666 10663 10661 10659 10658 10656 10654 10653 10651 10650 10651 10652 10652 10651 10651 10651 10650 10650 10650 10649 10650 10650 10650 10649 10650 10651 10652 10653 10653 10654 10654 10655 10656 10657 10657 10655 10656 10659 10662 10663 10663 10662 10662 10663 10664 10663 10661 10660 10659 10659 10659 10658 10657 10657 10656 10657 10656 10655 10656 10657 10657 10658 10659 10659 10659 10659 10660 10660 10659 10658 10657 10656 10656 10656
10660 10658 10658 10661 10664 10664 10663 10663 10663 10663 10664 10664 10661 10658 10656 10654 10652 10650 10648 10646 10646 10646 10648 10648 10647 10646 10647 10647 10647 10646 10645 10645 10646 10646 10646 10647 10647 10648 10649 10650 10651 10651 10652 10653 10653 10653 10651 10651 10654 10657 10659 10659 10659 10658 10658 10660 10661 10659 10657 10656 10655 10655 10655 10654 10652 10652 10652 10651 10650 10650 10651 10652 10653 10653 10654 10654 10654 10654 10654 10654 10653 10653 10652 10652 10652
10661 10661 10660 10661 10663 10663 10661 10660 10660 10659 10660 10660 10657 10654 10652 10650 10649 10647 10645 10642 10641 10642 10642 10643 10642 10641 10642 10642 10642 10642 10641 10641 10641 10641 10642 10643 10644 10645 10645 10646 10648 10649 10649 10650 10649 10649 10649 10649 10650 10653 10654 10654 10655 10655 10654 10656 10658 10657 10654 10652 10650 10650 10650 10650 10649 10648 10647 10646 10646 10646 10646 10647 10647 10648 10648 10649 10649 10649 10649 10649 10648 10648 10647 10647 10647
10663 10666 10667 10665 10663 10662 10657 10654 10655 10654 10655 10655 10652 10650 10648 10646 10646 10643 10640 10637 10636 10637 10637 10637 10637 10636 10636 10637 10637 10637 10637 10636 10636 10637 10638 10638 10640 10640 10641 10643 10644 10645 10646 10647 10647 10646 10646 10647 10647 10648 10649 10650 10650 10650 10650 10651 10654 10654 10651 10648 10646 10646 10646 10645 10644 10643 10642 10641 10642 10642 10642 10642 10642 10642 10643 10643 10644 10644 10644 10643 10643 10642 10641 10641 10641
10662 10667 10669 10668 10665 10661 10653 10648 10649 10649 10652 10653 10649 10646 10643 10641 10640 10637 10633 10631 10631 10632 10632 10632 10631 10631 10631 10631 10632 10633 10633 10633 10633 10633 10634 10634 10635 10636 10637 10638 10639 10641 10642 10643 10643 10643 10643 10643 10643 10644 10645 10645 10645 10646 10646 10647 10648 10649 10647 10644 10643 10642 10643 10642 10639 10637 10637 10636 10637 10637 10637 10637 10637 10637 10638 10638 10638 10638 10638 10637 10637 10636 10635 10635 10634
10657 10658 10659 10658 10655 10653 10648 10644 10643 10645 10649 10651 10646 10641 10638 10635 10632 10628 10625 10625 10626 10627 10627 10626 10625 10625 10625 10626 10627 10627 10628 10628 10628 10629 10629 10630 10630 10631 10632 10633 10635 10636 10637 10638 10638 10639 10639 10639 10639 10639 10640 10640 10640 10641 10641 10642 10642 10642 10641 10640 10640 10639 10640 10640 10636 10634 10632 10631 10632 10632 10632 10633 10633 10632 10633 10632 10632 10632 10631 10631 10631 10630 10629 10629 10629
10639 10636 10637 10637 10635 10635 10634 10632 10634 10638 10643 10646 10644 10636 10631 10628 10625 10621 10619 10619 10621 10622 10622 10621 10620 10620 10620 10621 10622 10622 10622 10623 10624 10625 10625 10626 10626 10627 10627 10628 10629 10630 10631 10632 10633 10633 10634 10633 10633 10633 10634 10634 10635 10635 10636 10637 10637 10636 10635 10635 10635 10635 10636 10636 10633 10631 10628 10625 10626 10628 10628 10628 10628 10628 10628 10628 10627 10627 10626 10626 10626 10625 10625 10624 10624